Location: Pitton
(51.0667°N, 1.7000°W)
Time: 05:12:31
(UTC+00:00)

Meteor 1-21 Rocket - Pass Details

Date: 17 September 2019
Orbit: 834 x 907 km, 81.2° (Epoch: 18 October)

Event Time Altitude Azimuth Distance (km) Brightness Sun altitude
Rises 21:02:55 0° 349° (N) 3,511 8.2 -24.7°
Reaches altitude 10° 21:05:26 10° 354° (N) 2,577 7.3 -25.1°
Maximum altitude 21:11:12 55° 72° (ENE) 1,082 4.5 -25.7°
Enters shadow 21:11:21 55° 78° (ENE) 1,084 4.5 -25.8°
